Location: Limoges
(45.8354°N, 1.2645°E)
Time: 11:41:07
(UTC+01:00)

Altair - All Passes

Search period start: 22 February 2024 00:00
Search period end: 03 March 2024 00:00
Orbit: 1501 x 1682 km, 47.2° (Epoch: 21 February)

Date Brightness Start Highest point End Pass type
(mag) Time Alt. Az. Time Alt. Az. Time Alt. Az.
22 Feb - 08:58:40 10° SE 09:02:02 12° ESE 09:05:25 10° E daylight
22 Feb - 10:56:11 10° SSW 11:04:44 45° SE 11:13:31 10° ENE daylight
22 Feb - 12:59:34 10° WSW 13:08:53 88° SSE 13:18:34 10° ENE daylight
22 Feb - 15:04:27 10° W 15:13:55 85° N 15:23:47 10° E daylight
22 Feb - 17:09:13 10° WNW 17:18:37 62° SSW 17:28:21 10° SE daylight
22 Feb - 19:14:57 10° W 19:22:03 23° SW 19:29:19 10° S visible
23 Feb - 08:35:13 10° SE 08:37:02 11° ESE 08:38:51 10° ESE daylight
23 Feb - 10:31:13 10° SSW 10:39:38 42° SE 10:48:14 10° ENE daylight
23 Feb - 12:34:24 10° WSW 12:43:41 85° SSE 12:53:18 10° ENE daylight
23 Feb - 14:39:15 10° W 14:48:41 84° N 14:58:31 10° E daylight
23 Feb - 16:44:01 10° WNW 16:53:26 65° SSW 17:03:12 10° SE daylight
23 Feb - 18:49:33 10° W 18:56:57 26° SW 19:04:34 10° S visible
24 Feb - 10:06:16 10° SSW 10:14:32 39° SE 10:22:57 10° ENE daylight
24 Feb - 12:09:13 10° WSW 12:18:28 83° SSE 12:28:03 10° ENE daylight
24 Feb - 14:14:02 10° W 14:23:27 83° N 14:33:14 10° E daylight
24 Feb - 16:18:49 10° WNW 16:28:14 68° SSW 16:38:01 10° SE daylight
24 Feb - 18:24:11 10° W 18:31:52 28° SW 18:39:46 10° S daylight
25 Feb - 09:41:22 10° SSW 09:49:26 36° SE 09:57:39 10° ENE daylight
25 Feb - 11:44:04 10° WSW 11:53:17 80° SSE 12:02:48 10° ENE daylight
25 Feb - 13:48:50 10° W 13:58:13 83° N 14:07:58 10° E daylight
25 Feb - 15:53:38 10° WNW 16:03:03 71° SSW 16:12:50 10° SE daylight
25 Feb - 17:58:51 10° WNW 18:06:46 30° SW 18:14:56 10° S daylight
26 Feb - 09:16:29 10° SSW 09:24:21 34° SE 09:32:21 10° ENE daylight
26 Feb - 11:18:55 10° WSW 11:28:06 77° SSE 11:37:33 10° ENE daylight
26 Feb - 13:23:38 10° W 13:32:58 82° N 13:42:41 10° E daylight
26 Feb - 15:28:27 10° WNW 15:37:51 74° SSW 15:47:38 10° ESE daylight
26 Feb - 17:33:32 10° WNW 17:41:40 33° SW 17:50:03 10° SSE daylight
27 Feb - 08:51:38 10° SSW 08:59:17 31° SE 09:07:02 10° ENE daylight
27 Feb - 10:53:47 10° WSW 11:02:55 74° SSE 11:12:19 10° ENE daylight
27 Feb - 12:58:25 10° W 13:07:44 82° N 13:17:24 10° E daylight
27 Feb - 15:03:15 10° WNW 15:12:39 77° SSW 15:22:26 10° ESE daylight
27 Feb - 17:08:14 10° WNW 17:16:33 35° SW 17:25:08 10° SSE daylight
28 Feb - 08:26:49 10° S 08:34:13 29° SE 08:41:41 10° ENE daylight
28 Feb - 10:28:39 10° SW 10:37:45 71° SSE 10:47:05 10° ENE daylight
28 Feb - 12:33:12 10° W 12:42:30 82° N 12:52:08 10° E daylight
28 Feb - 14:38:04 10° WNW 14:47:27 80° SSW 14:57:12 10° ESE daylight
28 Feb - 16:42:58 10° WNW 16:51:26 38° SW 17:00:11 10° SSE daylight
29 Feb - 08:02:03 10° S 08:09:10 26° SE 08:16:20 10° E daylight
29 Feb - 10:03:32 10° SW 10:12:35 68° SSE 10:21:51 10° ENE daylight
29 Feb - 12:08:00 10° W 12:17:16 83° N 12:26:52 10° E daylight
29 Feb - 14:12:52 10° WNW 14:22:14 83° SSW 14:31:58 10° ESE daylight
29 Feb - 16:17:43 10° WNW 16:26:19 40° SW 16:35:12 10° SSE daylight
29 Feb - 18:28:13 10° WSW 18:29:03 10° WSW 18:29:53 10° SW daylight
01 Mar - 07:37:19 10° S 07:44:07 24° SE 07:50:56 10° E daylight
01 Mar - 09:38:26 10° SW 09:47:26 64° SSE 09:56:37 10° ENE daylight
01 Mar - 11:42:47 10° W 11:52:03 84° N 12:01:36 10° E daylight
01 Mar - 13:47:40 10° WNW 13:57:02 85° SSW 14:06:44 10° ESE daylight
01 Mar - 15:52:29 10° WNW 16:01:11 43° SW 16:10:12 10° SSE daylight
01 Mar - 18:01:00 10° WSW 18:04:01 12° WSW 18:07:04 10° SW daylight
02 Mar - 07:12:39 10° S 07:19:04 22° SE 07:25:30 10° E daylight
02 Mar - 09:13:20 10° SW 09:22:17 61° SSE 09:31:23 10° ENE daylight
02 Mar - 11:17:34 10° W 11:26:49 85° N 11:36:20 10° E daylight
02 Mar - 13:22:29 10° WNW 13:31:49 88° SSW 13:41:29 10° ESE daylight
02 Mar - 15:27:15 10° WNW 15:36:03 46° SW 15:45:10 10° SSE daylight
02 Mar - 17:34:52 10° W 17:38:59 13° WSW 17:43:08 10° SSW daylight
